This is the latest recevied weather packets stored in our database for station/object EA2MKR. If no packets are shown the sender has not sent any weather packets the latest 10 day(s).
| Time | Temp. | Humidity | Pressure | Rain* | Wind** | Luminosity | Snow |
|---|---|---|---|---|---|---|---|
| 1777627449 | 17.22° C | 76% | 957.6 hPa | 0 mm | - | - | - |
| 1777627149 | 17.22° C | 75% | 957.6 hPa | 0 mm | - | - | - |
| 1777626849 | 17.22° C | 78% | 957.6 hPa | 0 mm | - | - | - |
| 1777626673 | 17.22° C | 79% | 957.6 hPa | 0 mm | - | - | - |
| 1777626250 | 17.22° C | 77% | 957.6 hPa | 0 mm | - | - | - |
| 1777625949 | 16.67° C | 77% | 957.6 hPa | 0 mm | - | - | - |
| 1777625650 | 16.67° C | 80% | 957.6 hPa | 0 mm | - | - | - |
| 1777625350 | 16.67° C | 81% | 957.6 hPa | 0 mm | - | - | - |
| 1777625049 | 16.11° C | 82% | 957.6 hPa | 0 mm | - | - | - |
| 1777624749 | 16.11° C | 83% | 957.6 hPa | 0 mm | - | - | - |
| 1777624449 | 15.56° C | 83% | 957.6 hPa | 0 mm | - | - | - |
| 1777624149 | 15.56° C | 87% | 957.5 hPa | 0 mm | - | - | - |
| 1777623849 | 15° C | 88% | 957.6 hPa | 0 mm | - | - | - |
| 1777623549 | 14.44° C | 88% | 957.7 hPa | 0 mm | - | - | - |
| 1777623249 | 14.44° C | 90% | 957.7 hPa | 0 mm | - | - | - |
| 1777623073 | 13.89° C | 92% | 957.6 hPa | 0 mm | - | - | - |
| 1777622774 | 13.89° C | 92% | 957.5 hPa | 0 mm | - | - | - |
| 1777622350 | 13.89° C | 94% | 957.5 hPa | 0 mm | - | - | - |
| 1777622173 | 13.33° C | 95% | 957.5 hPa | 0 mm | - | - | - |
| 1777621750 | 13.33° C | 96% | 957.5 hPa | 0 mm | - | - | - |
| 1777621449 | 12.78° C | 96% | 957.4 hPa | 0 mm | - | - | - |
| 1777621149 | 12.78° C | 97% | 957.4 hPa | 0 mm | - | - | - |
| 1777620849 | 12.78° C | 96% | 957.4 hPa | 0 mm | - | - | - |
| 1777620549 | 12.22° C | 96% | 957.4 hPa | 0 mm | - | - | - |
| 1777620373 | 12.22° C | 96% | 957.4 hPa | 0 mm | - | - | - |
* Rain latest hour (hover to see other rain measurements)
** Current wind speed in m/s (hover to see current wind gust speed)